Weather Service Report


340 
ASUS43 KDTX 200610
RWRMI 
MICHIGAN HOURLY REGIONAL WEATHER ROUNDUP
NATIONAL WEATHER SERVICE DETROIT/PONTIAC MI
200 AM EDT SUN APR 20 2014

NOTE: "FAIR" INDICATES FEW OR NO CLOUDS BELOW 12,000 FEET WITH NO
SIGNIFICANT WEATHER AND/OR OBSTRUCTION TO VISIBILITY.

MIZ047>049-052>055-059>063-066>070-074>076-081>083-200700-
SOUTHEAST LOWER MICHIGAN
  
CITY           SKY/WX    TMP DP  RH WIND       PRES   REMARKS
ADRIAN           N/A     36  31  82 NE6       30.34F                  
6HR MIN TEMP:  36; 6HR MAX TEMP:  48;                                

ALMA             N/A     36  34  92 CALM      30.32F                  
ANN ARBOR        N/A     39  29  67 E5        30.33F                  
BAD AXE          N/A     34  29  82 SE3       30.36F                  
6HR MIN TEMP:  33; 6HR MAX TEMP:  42;                                

DETROIT CITY     N/A     42  29  59 N3        30.36F                  
6HR MIN TEMP:  42; 6HR MAX TEMP:  50;                                

DETROIT          N/A     42  28  57 CALM      30.35F                  
6HR MIN TEMP:  40; 6HR MAX TEMP:  48;                                

FLINT            N/A     39  30  70 SE3       30.35S                  
6HR MIN TEMP:  37; 6HR MAX TEMP:  52;                                

GROSSE ILE       N/A     39  28  65 NE7       30.33F                  
HILLSDALE        N/A     38  30  71 CALM      30.32S                  
HOWELL           N/A     39  29  66 SE3       30.33F                  

CITY           SKY/WX    TMP DP  RH WIND       PRES   REMARKS
JACKSON          N/A     39  29  67 SE5       30.33S                  
6HR MIN TEMP:  37; 6HR MAX TEMP:  51;                                

LAMBERTVILLE     N/A     41  32  70 CALM      30.34F                  
LANSING          N/A     42  30  62 CALM      30.33S                  
6HR MIN TEMP:  42; 6HR MAX TEMP:  56;                                

LAPEER         NOT AVBL                                               
MASON            N/A     36  32  85 SE7       30.33S                  
MONROE           N/A     39  30  70 NE3       30.33F                  
MT. CLEMENS      N/A     37  33  86 CALM      30.35F                  
6HR MIN TEMP:  37; 6HR MAX TEMP:  46;                                

PONTIAC          N/A     38  29  70 E3        30.33F                  
6HR MIN TEMP:  38; 6HR MAX TEMP:  53;                                

PORT HOPE        N/A     38  28  67 S6        30.34F                  
6HR MIN TEMP:  33; 6HR MAX TEMP:  38;                                

PORT HURON       N/A     32  30  93 CALM      30.37F FOG              
TRI CITIES       N/A     41  32  70 SE5       30.33F                  
6HR MIN TEMP:  39; 6HR MAX TEMP:  44;                                

YPSILANTI        N/A     41  30  65 NE3       30.34F                  
6HR MIN TEMP:  36; 6HR MAX TEMP:  49;                                

$$
MIZ043>046-050>051-056>058-064>065-071>073-077>080-200700-
SOUTHWEST LOWER MICHIGAN
  
CITY           SKY/WX    TMP DP  RH WIND       PRES   REMARKS
BATTLE CREEK     N/A     45  28  51 SE3       30.31F                  
6HR MIN TEMP:  45; 6HR MAX TEMP:  58;                                

BENTON HARBOR    N/A     46  29  51 SE9       30.28S                  
6HR MIN TEMP:  45; 6HR MAX TEMP:  58;                                

BIG RAPIDS       N/A     41  32  69 CALM      30.29F                  
6HR MIN TEMP:  41; 6HR MAX TEMP:  54;                                

COLDWATER        N/A     40  29  65 E5        30.31F                  
6HR MIN TEMP:  40; 6HR MAX TEMP:  53;                                

HOLLAND          N/A     48  29  47 SE9       30.29S                  
6HR MIN TEMP:  47; 6HR MAX TEMP:  59;                                

GRAND RAPIDS     N/A     46  27  47 SE7       30.30F                  
6HR MIN TEMP:  46; 6HR MAX TEMP:  58;                                

KALAMAZOO        N/A     44  29  55 SE5       30.30F                  
6HR MIN TEMP:  44; 6HR MAX TEMP:  58;                                

MARSHALL         N/A     39  29  68 E5        30.31F                  
MUSKEGON         N/A     49  28  44 SE9       30.28S                  
6HR MIN TEMP:  49; 6HR MAX TEMP:  59;                                

$$
MIZ016>042-200700-
NORTHERN LOWER MICHIGAN
  
CITY           SKY/WX    TMP DP  RH WIND       PRES   REMARKS
ALPENA           N/A     28  24  85 SE3       30.33F                  
6HR MIN TEMP:  27; 6HR MAX TEMP:  37;                                

BEAVER ISLAND  LGT RAIN  45  30  57 SE6       30.25F                  
6HR MIN TEMP:  34; 6HR MAX TEMP:  46;                                

BELLAIRE       CLOUDY    47  28  46 S9        30.25F                  
6HR MIN TEMP:  45; 6HR MAX TEMP:  54;                                

CADILLAC         N/A     42  31  64 S7G16     30.26F                  
CHARLEVOIX     CLOUDY    46  30  54 SE5       30.27F                  
6HR MIN TEMP:  45; 6HR MAX TEMP:  55;                                

FRANKFORT      MOCLDY    49  32  52 S12G24    30.22F                  
GAYLORD        MOCLDY    37  25  61 S14       30.27F                  
6HR MIN TEMP:  37; 6HR MAX TEMP:  47;                                

GRAYLING         N/A     33  24  69 E5        30.30F                  
6HR MIN TEMP:  33; 6HR MAX TEMP:  48;                                

HARBOR SPRINGS CLOUDY    44  29  56 CALM      30.26S                  
HOUGHTON LAKE    N/A     34  28  79 SE7       30.31R                  
6HR MIN TEMP:  34; 6HR MAX TEMP:  47;                                

MANISTEE         N/A     48  30  49 SE7       30.25S                  
OSCODA           N/A     31  27  86 CALM      30.33F                  
PELLSTON       CLOUDY    41  26  55 SE6       30.28S                  
6HR MIN TEMP:  38; 6HR MAX TEMP:  48;                                

TRAVERSE CITY  CLOUDY    46  30  53 VRB6      30.23F                  
6HR MIN TEMP:  46; 6HR MAX TEMP:  55;                                

$$
MIZ007>008-015-200700-
EASTERN UPPER MICHIGAN
  
CITY           SKY/WX    TMP DP  RH WIND       PRES   REMARKS
KINROSS        CLOUDY    34  30  86 SE13      30.29F                  
6HR MIN TEMP:  34; 6HR MAX TEMP:  37; 6HR PCP:  0.01;                

MACKINAC ISLAN CLOUDY    34  29  85 E7        30.29F                  
6HR MIN TEMP:  33; 6HR MAX TEMP:  39;                                

NEWBERRY       CLOUDY    34  30  86 SE7       30.23F                  
6HR MIN TEMP:  34; 6HR MAX TEMP:  39;                                

S. S. MARIE    FRZ RAIN  33  27  78 E8        30.30F                  
6HR MIN TEMP:  33; 6HR MAX TEMP:  37; 6HR PCP:  0.04;                

$$
MIZ004>006-011>014-085-200700-
CENTRAL UPPER MICHIGAN
  
CITY           SKY/WX    TMP DP  RH WIND       PRES   REMARKS
MANISTIQUE     LGT RAIN  37  32  82 SE9       30.21F                  
ESCANABA       CLOUDY    36  32  87 SE10      30.19F                  
6HR MIN TEMP:  36; 6HR MAX TEMP:  39; 6HR PCP:  0.16;                

MENOMINEE      CLOUDY    39  32  75 NE6       30.17S                  
6HR MIN TEMP:  39; 6HR MAX TEMP:  46;                                

SAWYER-GWINN   CLOUDY    37  35  90 S15       30.14S                  
6HR MIN TEMP:  37; 6HR MAX TEMP:  42; 6HR PCP:  0.07;                

$$
MIZ001>003-009>011-084-200700-
WESTERN UPPER MICHIGAN
  
CITY           SKY/WX    TMP DP  RH WIND       PRES   REMARKS
IRON MOUNTAIN  LGT RAIN  41  38  89 SE10      30.11F FOG              
6HR MIN TEMP:  40; 6HR MAX TEMP:  47; 6HR PCP: TRACE;                

HOUGHTON       CLOUDY    37  31  78 E8        30.03F                  
6HR MIN TEMP:  36; 6HR MAX TEMP:  42;                                

COPPER HARBOR    N/A     38  32  79 SW10G22   30.03F                  
6HR MIN TEMP:  37; 6HR MAX TEMP:  41;                                

IRONWOOD       MOCLDY    48  37  66 S12G18    29.97F                  
6HR MIN TEMP:  48; 6HR MAX TEMP:  50;                                

$$

ABBREVIATIONS USED IN REMARKS
   TC - TEMPERATURE IN CELSIUS
  WCI - WIND CHILL INDEX
   HX - HEAT INDEX
  VSB - VISIBILITY



368 
ASUS43 KDTX 200610
RWRMI 
MICHIGAN HOURLY REGIONAL WEATHER ROUNDUP
NATIONAL WEATHER SERVICE DETROIT/PONTIAC MI
200 AM EDT SUN APR 20 2014

NOTE: "FAIR" INDICATES FEW OR NO CLOUDS BELOW 12,000 FEET WITH NO
SIGNIFICANT WEATHER AND/OR OBSTRUCTION TO VISIBILITY.

MIZ047>049-052>055-059>063-066>070-074>076-081>083-200700-
SOUTHEAST LOWER MICHIGAN
  
CITY           SKY/WX    TMP DP  RH WIND       PRES   REMARKS
ADRIAN         FAIR      36  31  82 NE6       30.34F WCI  31          
6HR MIN TEMP:  36; 6HR MAX TEMP:  48;                                

ALMA           FAIR      36  34  92 CALM      30.32F                  
ANN ARBOR      FAIR      39  29  67 E5        30.33F                  
BAD AXE        FAIR      34  29  82 SE3       30.36F                  
6HR MIN TEMP:  33; 6HR MAX TEMP:  42;                                

CARO           FAIR      38  32  81 SE3       30.35S                  
DETROIT CITY   FAIR      42  29  59 N3        30.36F                  
6HR MIN TEMP:  42; 6HR MAX TEMP:  50;                                

DETROIT        FAIR      42  28  57 CALM      30.35F                  
6HR MIN TEMP:  40; 6HR MAX TEMP:  48;                                

FLINT          FAIR      39  30  70 SE3       30.35S                  
6HR MIN TEMP:  37; 6HR MAX TEMP:  52;                                

GROSSE ILE     FAIR      39  28  65 NE7       30.33F WCI  34          
HILLSDALE      FAIR      38  30  71 CALM      30.32S                  
HOWELL         FAIR      39  29  66 SE3       30.33F                  

CITY           SKY/WX    TMP DP  RH WIND       PRES   REMARKS
JACKSON        FAIR      39  29  67 SE5       30.33S                  
6HR MIN TEMP:  37; 6HR MAX TEMP:  51;                                

LAMBERTVILLE   FAIR      41  32  70 CALM      30.34F                  
LANSING        FAIR      42  30  62 CALM      30.33S                  
6HR MIN TEMP:  42; 6HR MAX TEMP:  56;                                

LAPEER         FAIR      35  32  87 CALM      30.34F                  
MASON          FAIR      36  32  85 SE7       30.33S WCI  30          
MONROE         FAIR      39  30  70 NE3       30.33F                  
MT. CLEMENS    FAIR      37  33  86 CALM      30.35F                  
6HR MIN TEMP:  37; 6HR MAX TEMP:  46;                                

PONTIAC        FAIR      38  29  70 E3        30.33F                  
6HR MIN TEMP:  38; 6HR MAX TEMP:  53;                                

PORT HOPE        N/A     38  28  67 S6        30.34F WCI  33          
6HR MIN TEMP:  33; 6HR MAX TEMP:  38;                                

PORT HURON     FAIR      32  30  93 CALM      30.37F FOG              
TRI CITIES     FAIR      41  32  70 SE5       30.33F                  
6HR MIN TEMP:  39; 6HR MAX TEMP:  44;                                

TROY           FAIR      41  28  60 CALM      30.36F                  
SAGINAW HB     FAIR      41  32  70 S3        30.34S                  
YPSILANTI      FAIR      41  30  65 NE3       30.34F                  
6HR MIN TEMP:  36; 6HR MAX TEMP:  49;                                

$$
MIZ043>046-050>051-056>058-064>065-071>073-077>080-200700-
SOUTHWEST LOWER MICHIGAN
  
CITY           SKY/WX    TMP DP  RH WIND       PRES   REMARKS
BATTLE CREEK   FAIR      45  28  51 SE3       30.31F                  
6HR MIN TEMP:  45; 6HR MAX TEMP:  58;                                

BENTON HARBOR  FAIR      46  29  51 SE9       30.28S                  
6HR MIN TEMP:  45; 6HR MAX TEMP:  58;                                

BIG RAPIDS     FAIR      41  32  69 CALM      30.29F                  
6HR MIN TEMP:  41; 6HR MAX TEMP:  54;                                

COLDWATER      FAIR      40  29  65 E5        30.31F                  
6HR MIN TEMP:  40; 6HR MAX TEMP:  53;                                

FREMONT        FAIR      48  28  46 SE5       30.28S                  
HOLLAND        FAIR      48  29  47 SE9       30.29S                  
6HR MIN TEMP:  47; 6HR MAX TEMP:  59;                                

GRAND RAPIDS   FAIR      46  27  47 SE7       30.30F                  
6HR MIN TEMP:  46; 6HR MAX TEMP:  58;                                

IONIA          FAIR      41  31  67 S9        30.31F                  
KALAMAZOO      FAIR      44  29  55 SE5       30.30F                  
6HR MIN TEMP:  44; 6HR MAX TEMP:  58;                                

LUDINGTON      FAIR      49  32  51 SE7       30.24F                  
MARSHALL       FAIR      39  29  68 E5        30.31F                  
MOUNT PLEASANT FAIR      37  32  83 CALM      30.31F                  
6HR MIN TEMP:  37; 6HR MAX TEMP:  49;                                

MUSKEGON       FAIR      49  28  44 SE9       30.28S                  
6HR MIN TEMP:  49; 6HR MAX TEMP:  59;                                

SOUTH HAVEN    FAIR      47  27  47 SE6       30.29S                  
$$
MIZ016>042-200700-
NORTHERN LOWER MICHIGAN
  
CITY           SKY/WX    TMP DP  RH WIND       PRES   REMARKS
ALPENA         FAIR      28  24  85 SE3       30.33F                  
6HR MIN TEMP:  27; 6HR MAX TEMP:  37;                                

BEAVER ISLAND  LGT RAIN  45  30  57 SE6       30.25F                  
6HR MIN TEMP:  34; 6HR MAX TEMP:  46;                                

BELLAIRE       CLOUDY    47  28  46 S9        30.25F                  
6HR MIN TEMP:  45; 6HR MAX TEMP:  54;                                

CADILLAC       FAIR      42  31  64 S7G16     30.26F                  
CHARLEVOIX     CLOUDY    46  30  54 SE5       30.27F                  
6HR MIN TEMP:  45; 6HR MAX TEMP:  55;                                

FRANKFORT      MOCLDY    49  32  52 S12G24    30.22F                  
GAYLORD        MOCLDY    37  25  61 S14       30.27F WCI  28          
6HR MIN TEMP:  37; 6HR MAX TEMP:  47;                                

GRAYLING       FAIR      33  24  69 E5        30.30F WCI  28          
6HR MIN TEMP:  33; 6HR MAX TEMP:  48;                                

HARBOR SPRINGS CLOUDY    44  29  56 CALM      30.26S                  
HOUGHTON LAKE  FAIR      34  28  79 SE7       30.31R WCI  28          
6HR MIN TEMP:  34; 6HR MAX TEMP:  47;                                

MANISTEE       FAIR      48  30  49 SE7       30.25S                  
OSCODA         FAIR      31  27  86 CALM      30.33F                  
PELLSTON       CLOUDY    41  26  55 SE6       30.28S                  
6HR MIN TEMP:  38; 6HR MAX TEMP:  48;                                

ROGERS CITY    CLOUDY    35  28  75 S8        30.32F WCI  28          
TRAVERSE CITY  CLOUDY    46  30  53 VRB6      30.23F                  
6HR MIN TEMP:  46; 6HR MAX TEMP:  55;                                

$$
MIZ007>008-015-200700-
EASTERN UPPER MICHIGAN
  
CITY           SKY/WX    TMP DP  RH WIND       PRES   REMARKS
KINROSS        CLOUDY    34  30  86 SE13      30.29F WCI  25          
6HR MIN TEMP:  34; 6HR MAX TEMP:  37; 6HR PCP:  0.01;                

MACKINAC ISLAN CLOUDY    34  29  85 E7        30.29F WCI  27          
6HR MIN TEMP:  33; 6HR MAX TEMP:  39;                                

NEWBERRY       CLOUDY    34  30  86 SE7       30.23F WCI  28          
6HR MIN TEMP:  34; 6HR MAX TEMP:  39;                                

S. S. MARIE    FRZ RAIN  33  27  78 E8        30.30F WCI  26          
6HR MIN TEMP:  33; 6HR MAX TEMP:  37; 6HR PCP:  0.04;                

MUNISING         N/A     40  34  79 S12       30.15F WCI  33          
6HR MIN TEMP:  38; 6HR MAX TEMP:  45; 6HR PCP:  0.37;                

$$
MIZ004>006-011>014-085-200700-
CENTRAL UPPER MICHIGAN
  
CITY           SKY/WX    TMP DP  RH WIND       PRES   REMARKS
MANISTIQUE     LGT RAIN  37  32  82 SE9       30.21F WCI  30          
ESCANABA       CLOUDY    36  32  87 SE10      30.19F WCI  28          
6HR MIN TEMP:  36; 6HR MAX TEMP:  39; 6HR PCP:  0.16;                

MENOMINEE      CLOUDY    39  32  75 NE6       30.17S WCI  35          
6HR MIN TEMP:  39; 6HR MAX TEMP:  46;                                

SAWYER-GWINN   CLOUDY    37  35  90 S15       30.14S WCI  28          
6HR MIN TEMP:  37; 6HR MAX TEMP:  42; 6HR PCP:  0.07;                

$$
MIZ001>003-009>011-084-200700-
WESTERN UPPER MICHIGAN
  
CITY           SKY/WX    TMP DP  RH WIND       PRES   REMARKS
IRON MOUNTAIN  LGT RAIN  41  38  89 SE10      30.11F FOG              
6HR MIN TEMP:  40; 6HR MAX TEMP:  47; 6HR PCP: TRACE;                

HOUGHTON       CLOUDY    37  31  78 E8        30.03F WCI  31          
6HR MIN TEMP:  36; 6HR MAX TEMP:  42;                                

COPPER HARBOR    N/A     38  32  79 SW10G22   30.03F WCI  31          
6HR MIN TEMP:  37; 6HR MAX TEMP:  41;                                

IRONWOOD       MOCLDY    48  37  66 S12G18    29.97F                  
6HR MIN TEMP:  48; 6HR MAX TEMP:  50;                                

$$

ABBREVIATIONS USED IN REMARKS
   TC - TEMPERATURE IN CELSIUS
  WCI - WIND CHILL INDEX
   HX - HEAT INDEX
  VSB - VISIBILITY


Return to Home page


Western Regional Climate Center, wrcc@dri.edu